Погода в Петруни

Погода в Петруни : погода сейчас, прогноз погоды и архив. Всё, что Вы хотите узнать о погоде в Петруни!

Поиск расширенной информации на нашем сайте:

Полезная информация: котокафе

Другие новости

Новости СМИ2

Главная страница сайта

Новости сайта

02.10.2013

Напоминаем, что на нашем новом сайте вы можете получить высокодетализированные прогнозы погоды по пунктам России, СНГ и мира (включающие важные для авиации метеовеличины, такие как направление и скорость ветра, видимость, явления погоды, количество и форма облачности, нижняя и верхняя граница облачности), а также ознакомиться с разнообразными материалами по авиационной метеорологии и подборкой полезных ссылок на эту тему.

Сайт Метеоцентр.Азия посвящён разработке технологий оптимизации авиаметеорологического обслуживания, включая проектирование и перспективное создание нескольких автоматизированных авиаметеорологических систем:
- система выпуска высокодетальных прогностических карт явлений погоды для нижнего воздушного пространства по России и ближнему зарубежью;
- система верификации прогнозов TAF (выпускаемых синоптиками официальных АМСГ РФ и ближнего зарубежья) и AUTOTAF (выпускаемых сайтом Метеоцентр.Азия) - выявление ошибок, онлайн-сопоставление с фактической погодой METAR, автоматическое внесение коррективов в прогнозы при резком отклонении фактической погоды от прогноза, подсчёт оправдываемости прогнозов по элементам и в целом;
- система обработки, анализа и отображения авиаметеорологической информации для применения провайдерами метеорологической информации.

Рекомендуем: Лада с пробегом купить авто с пробегом.

Погода в Петруни - сегодня

Время (UTC), дата Ветер
(°,м/с) 
Видим.   Явления Облачность Т
(°С)
Тd
(°С)
f(%) Тe
(°С)
Pmin
(гПа)
dP
(гПа)
Po
(мм)
O2
(г/м3)
Тmin Tmax R s Состояние
почвы
00 25.05.17 260 (З) 5-10{11}  35000 м    9/9 800 м кучево-дожд. 
[Cb cap]
+0.3 -1.7 86 -3  1004.4  0.4  748  301           
03 25.05.17 270 (З) 5{11}  40000 м    8/1 600 м кучево-дожд., средняя, верхняя 
[Cb cap|Ac trans|Ci sp]
+0.8 -3.8 71 -2  1005.5  1.1  748  301  +0.1      79  очень
неравномерный
сухой снег
(сугробы, заносы) 
06 25.05.17 250 (З) 5{11}  35000 м  в посл. час ливневой снег  9/9 700 м кучево-дожд. 
[Cb cap]
+1.3 -2.2 77 -1  1007.3  1.8  750  301           
09 25.05.17 270 (З) 7-11{13}  35000 м    9/5 600 м кучево-дожд., верхняя 
[Cb cap|Ci fib]
+1.8 -5.1 60 -2  1009.7  2.4  752  301           
12 25.05.17 260 (З) 4{14}  35000 м  в посл. час ливневой снег  9/9 1230 м кучево-дожд. 
[Cb cap]
+2.3 -3.3 66 1011.3  1.6  753  301           
15 25.05.17 270 (З) 4{11}  30000 м  в посл. час ливневой снег  6/4 600 м кучево-дожд., средняя 
[Cb cap|Ac As]
+0.6 -2.3 81 -2  1012.6  1.2  754  303    +2.8  0.6     
18 25.05.17 220 (ЮЗ) 2{10}  30000 м  в посл. час ливневой снег  3/1 600 м кучево-дожд., средняя 
[Cb cap|Ac As]
-2.3 -2.6 98 -3  1013.3  0.7  754  307           
21 25.05.17 200 (Ю) 27000 м    9/0 средняя 
[Ac As]
-3.5 -4 96 -3  1013.1  -0.3  754  308           
00 26.05.17 180 (Ю) 29000 м    10/0 средняя 
[Ac As]
-0.8 -1.5 95 1012.8  -0.2  754  305           
03 26.05.17 090 (В) 35000 м  {снег}  9/0 средняя 
[Ac As]
+1.9 -2.1 75 +1  1010.6  -2.1  752  301  -4.5    0.5  39  очень
неравномерный
сухой снег
(сугробы, заносы) 
06 26.05.17 120 (ЮВ) 8000 м  слаб. снег  10/0 средняя 
[As op]
+2.5 -0.8 79 +1  1008.8  -1.7  751  300           
09 26.05.17 090 (В) 40000 м  {снег}  9/0 средняя, верхняя 
[Ac As|Cs]
+6.2 -1.3 59 +5  1005.5  -3.3  748  295           
12 26.05.17 110 (В) 40000 м  {снег}  10/0 средняя 
[Ac As]
+6.8 -2.9 50 +5  1004.1  -1.4  747  294           
21 26.05.17 110 (В) 29000 м    9/9 1020 м 
[Sc]
+2.4 +0.8 89 +2  1000.7  -0.4  745  297           
03 27.05.17 170 (Ю) 40000 м    8/1 600 м средняя 
[Sc|Ac As]
+3.2 +1.1 86 +3  1001.5  -0.2  745  297  +1.3      31  мокрый или
старый снег
50-90% 
06 27.05.17 020 (С) 40000 м    10/0 средняя 
[Ac As]
+6.1 +1.1 70 +7  1000.7  -0.7  745  293           
09 27.05.17 080 (В) 6000 м  слаб. дождь  10/3 300 м средняя 
[Frnb|As op]
+6.3 +3.5 82 +6  999.2  -1.5  744  292           
15 27.05.17 280 (З) 2900 м  снег{дождь}  10/10 300 м 
[Frnb|Ns]
+0 -0.8 94 -2  1001.7  2.6  746  300    +7.6     
03 28.05.17 220 (ЮЗ) 8000 м  слаб. снег  10/4 300 м средняя 
[Frnb|As op]
-3.9 -6.8 80 -6  1005.2  0.2  748  307  -4.3    0.8  29  очень
неравномерный
сухой снег
(сугробы, заносы) 
09 28.05.17 250 (З) 35000 м    10/10 930 м 
[Sc]
-0.8 -8.1 58 -3  1005.6  748  303           
15 28.05.17 250 (З) 35000 м  {ливн. осадки}  8/8 800 м средняя 
[Ac inh]
+1 -4.3 68 +2  1006.3  0.2  749  301    +1.4  0.3     
21 28.05.17 260 (З) 35000 м    4/4 1000 м 
[Sc]
-2.1 -6.4 72 -4  1006.5  0.3  749  305           
00 29.05.17 230 (ЮЗ) 40000 м    3/3 1000 м 
[Sc]
+11 -5.8 30 +12  1007.1  0.6  749  291           
03 29.05.17 250 (З) 40000 м    10/0 средняя 
[Ac As]
-0.4 -4.5 74 -2  1006.8  -0.2  749  303  -3.6      28  мокрый или
старый снег
50-90% 
06 29.05.17 200 (Ю) 35000 м    9/9 960 м кучево-дожд. 
[Cb cap]
+1.4 -4.5 65 +1  1006.9  0.1  749  301           
Время (UTC), дата Ветер
(°,м/с) 
Видим.   Явления Облачность Т
(°С)
Тd
(°С)
f(%) Тe
(°С)
Pmin
(гПа)
dP
(гПа)
Po
(мм)
O2
(г/м3)
Тmin Tmax R s Состояние
почвы

Для получения пояснительной информации подведите курсор к названию столбца.

ПОГОДА в Петруни - архив

Всё, что Вы хотите узнать о погоде в Петруни - удобно и подробно!

Выберите нужную дату (начиная с 1 января 2015* года) и нажмите кнопку "Найти".
Будут отображены архивные сводки погоды по пункту Петрунь, начиная с указанной даты.


Отображать данные в формате CSV (для использования в таблицах Excel)


Внимание! Наш архив погоды предназначен исключительно для личного некоммерческого использования в познавательных целях. Если Вам необходимы официальные справки о состоянии погоды (для производственных, юридических, коммерческих и т.п. целей), обращайтесь в органы Росгидромета.

*Примечание: данная дата относится к архиву по метеостанциям СССР (Россия, СНГ, Балтия).
Архив по метеостанциям Зарубежной Европы и Азии (кроме Китая) хранится 10 дней, по другим регионам земного шара (Китай, Африка, Америка, Австралия, Океания) - 1 день.

Петрунь - район местоположения метеостанции


Название, широта, долгота, высота метеостанции:
Петрунь 66.5°ш. 60.8°д. 58 м над ур. моря [Российская Федерация]

Дополнительная информация

В oтличие oт бoльшинства пoгoдных сайтoв мы публикуем пoдрoбную метеoинфoрмацию в детальнoм прoфессиoнальнoм фoрмате.

Характеристики температуры и влажнoсти вoздуха измеряются на высoте 2 м в тени вдали oт зданий и деревьев.
Скoрoсть ветра измеряется на высoте 10 м (на урoвне рoста челoвека скoрoсть ветра ниже в 1.5-2 раза). Если метеoстанция нахoдится в гoрoде или в лесу, тo скoрoсть ветра занижена на 2-4 м/с пo сравнению с oткрытым местoм. Скoрoсть ветра над акватoриями крупных рек и oзёр, а также на вершинах хoлмoв на 2-5 м/с выше, чем в oбычных услoвиях.
Атмoсфернoе давление в разных тoчках местнoсти мoжет значительнo oтличаться oт давления на метеoстанции, в зависимoсти oт услoвий рельефа (при пoдъёме на 10 м давление пoнижается примернo на 1 мм рт.ст.).